Retour au catalogue

ICEYE-X75

ActifScienceSSO
NORAD 68497·PAYLOAD·🇵🇱 Poland

Lancé Mar 30, 2026 depuis Vandenberg Space Force Base

Loading…

Prochains Passages (prochaines 24 heures)

TLE

FraisSource: Space-Track

Époque: Sep 14, 2026, 14:55 UTC

1 68497U 26067CK  26257.62202147  .00000995  00000-0  10295-3 0  9994
2 68497  97.7689 214.6082 0002451  49.5764 310.5669 14.92278581 25062

Suivez ICEYE-X75 en temps réel avec AllMySat

Download on the App Store